Flag for Philippines Weather past 2 weeks in Olongapo, Philippines

Now
75 °F

Passing clouds.


Feels Like: 77 °F
Forecast: 74 / 94 °F
Wind: No wind

Location: Subic Bay Weather Station

Current Time: Mar 29, 2015 at 3:38:35 AM

Latest Report: Mar 29, 2015 at 3:00 AM


Visibility: N/A

Pressure: 29.89 "Hg

Humidity: 74%

Dew point: 66 °F

Location of OlongapoLocation

Historic Weather in Olongapo — Graph

°F

Olongapo temperature yesterday

Maximum temperature yesterday: 93 °F (at 2:00 PM)
Minimum temperature yesterday: 72 °F (at 5:00 AM)
Average temperature yesterday: 84 °F

Past Weeks' High & Low Weather Summary

 TemperatureHumidityPressure
High93 °F (Mar 15, 3:00 PM)83% (Mar 16, 4:00 AM)30.07 "Hg (Mar 16, 4:00 AM)
Low70 °F (Mar 18, 2:00 AM)30% (Mar 17, 2:00 PM)29.80 "Hg (Mar 17, 3:00 PM)
Average82 °F62%29.92 "Hg
* Reported Mar 14 2:00 AM — Mar 29 2:00 AM, Olongapo, Weather by CustomWeather, © 2015

Note: Actual official high and low records may vary slightly from our data, if they occured in-between our weather recording intervals... More about our weather records

Advertising

Olongapo weather history for previous 24 hours

 ConditionsComfort  
Time TempWeatherWind HumidityBarometerVisibility
2:00 AM
Sun, Mar 29
77 °FPassing clouds.No wind74%29.89 "HgN/A
12:00 AM77 °FPassing clouds.1 mph69%29.92 "HgN/A
11:00 PM
Sat, Mar 28
79 °FPassing clouds.1 mph70%29.95 "HgN/A
10:00 PM79 °FWarm.N/A70%29.95 "HgN/A
9:00 PM81 °FPassing clouds.1 mph70%29.95 "HgN/A
8:00 PM81 °FPassing clouds.1 mph74%29.92 "HgN/A
7:00 PM82 °FPassing clouds.6 mph70%29.92 "HgN/A
6:00 PM84 °FScattered clouds.6 mph62%29.89 "HgN/A
5:00 PM88 °FScattered clouds.2 mph55%29.86 "HgN/A
4:00 PM91 °FScattered clouds.13 mph38%29.83 "HgN/A
3:00 PM93 °FScattered clouds.16 mph36%29.83 "HgN/A
2:00 PM93 °FScattered clouds.10 mph36%29.86 "HgN/A
1:00 PM90 °FScattered clouds.7 mph46%29.89 "HgN/A
12:00 PM91 °FScattered clouds.10 mph44%29.92 "HgN/A
11:00 AM90 °FPassing clouds.9 mph46%29.98 "HgN/A
10:00 AM88 °FPassing clouds.10 mph49%29.98 "HgN/A
9:00 AM84 °FPartly sunny.12 mph58%29.98 "HgN/A
8:00 AM81 °FPartly sunny.9 mph66%29.98 "HgN/A
7:00 AM79 °FPartly sunny.No wind70%29.95 "HgN/A
6:00 AM77 °FPartly sunny.8 mph69%29.95 "HgN/A
5:00 AM72 °FPassing clouds.1 mph83%29.95 "HgN/A
Weather by CustomWeather, © 2015

See weather overviewHow to use our weather pages